date,time,SUV Intensity [MED/Hr],UV Index,Daily total [MED],Since Last [MED]
30/08/2023,00:00:40,-0.001,0.0,0.0,0.0
30/08/2023,00:01:40,0.000,0.0,0.0,0.0
30/08/2023,00:03:03,-0.001,0.0,0.0,0.0
30/08/2023,00:03:40,-0.001,0.0,0.0,0.0
30/08/2023,00:04:41,0.000,0.0,0.0,0.0
30/08/2023,00:05:41,0.000,0.0,0.0,0.0
30/08/2023,00:06:40,0.000,0.0,0.0,0.0
30/08/2023,00:07:41,0.000,0.0,0.0,0.0
30/08/2023,00:08:41,-0.000,0.0,0.0,0.0
30/08/2023,00:09:41,0.000,0.0,0.0,0.0
30/08/2023,00:10:41,0.000,0.0,0.0,0.0
30/08/2023,00:11:41,0.000,0.0,0.0,0.0
30/08/2023,00:12:41,0.001,0.0,0.0,0.0
30/08/2023,00:13:41,0.001,0.0,0.0,0.0
30/08/2023,00:14:41,0.000,0.0,0.0,0.0
30/08/2023,00:15:41,0.000,0.0,0.0,0.0
30/08/2023,00:16:40,0.000,0.0,0.0,0.0
30/08/2023,00:17:41,-0.001,0.0,0.0,0.0
30/08/2023,00:18:40,0.000,0.0,0.0,0.0
30/08/2023,00:19:40,0.000,0.0,0.0,0.0
30/08/2023,00:20:41,0.001,0.0,0.0,0.0
30/08/2023,00:21:41,0.000,0.0,0.0,0.0
30/08/2023,00:22:41,-0.000,0.0,0.0,0.0
30/08/2023,00:23:41,0.001,0.0,0.0,0.0
30/08/2023,00:24:40,0.000,0.0,0.0,0.0
30/08/2023,00:25:41,0.000,0.0,0.0,0.0
30/08/2023,00:26:41,-0.001,0.0,0.0,0.0
30/08/2023,00:27:41,0.000,0.0,0.0,0.0
30/08/2023,00:28:41,0.001,0.0,0.0,0.0
30/08/2023,00:29:41,0.000,0.0,0.0,0.0
30/08/2023,00:30:41,0.000,0.0,0.0,0.0
30/08/2023,00:31:41,0.000,0.0,0.0,0.0
30/08/2023,00:32:41,0.000,0.0,0.0,0.0
30/08/2023,00:33:40,0.001,0.0,0.0,0.0
30/08/2023,00:34:41,0.000,0.0,0.0,0.0
30/08/2023,00:35:41,0.001,0.0,0.0,0.0
30/08/2023,00:36:41,-0.000,0.0,0.0,0.0
30/08/2023,00:37:41,0.000,0.0,0.0,0.0
30/08/2023,00:38:41,0.000,0.0,0.0,0.0
30/08/2023,00:39:41,0.000,0.0,0.0,0.0
30/08/2023,00:40:40,0.000,0.0,0.0,0.0
30/08/2023,00:41:40,-0.000,0.0,0.0,0.0
30/08/2023,00:42:41,0.000,0.0,0.0,0.0
30/08/2023,00:43:41,0.000,0.0,0.0,0.0
30/08/2023,00:44:41,0.000,0.0,0.0,0.0
30/08/2023,00:45:41,0.000,0.0,0.0,0.0
30/08/2023,00:46:41,-0.000,0.0,0.0,0.0
30/08/2023,00:47:41,0.001,0.0,0.0,0.0
30/08/2023,00:48:40,0.001,0.0,0.0,0.0
30/08/2023,00:49:40,0.000,0.0,0.0,0.0
30/08/2023,00:50:41,0.001,0.0,0.0,0.0
30/08/2023,00:51:41,-0.001,0.0,0.0,0.0
30/08/2023,00:52:41,0.000,0.0,0.0,0.0
30/08/2023,00:53:41,0.001,0.0,0.0,0.0
30/08/2023,00:54:41,0.000,0.0,0.0,0.0
30/08/2023,00:55:41,0.000,0.0,0.0,0.0
30/08/2023,00:56:41,0.000,0.0,0.0,0.0
30/08/2023,00:57:41,0.000,0.0,0.0,0.0
30/08/2023,00:58:40,0.002,0.0,0.0,0.0
30/08/2023,00:59:41,0.001,0.0,0.0,0.0
30/08/2023,01:00:41,0.000,0.0,0.0,0.0
30/08/2023,01:01:41,0.001,0.0,0.0,0.0
30/08/2023,01:02:41,0.000,0.0,0.0,0.0
30/08/2023,01:03:41,0.001,0.0,0.0,0.0
30/08/2023,01:04:41,0.000,0.0,0.0,0.0
30/08/2023,01:05:41,0.001,0.0,0.0,0.0
30/08/2023,01:06:40,0.002,0.0,0.0,0.0
30/08/2023,01:07:40,0.001,0.0,0.0,0.0
30/08/2023,01:08:41,0.000,0.0,0.0,0.0
30/08/2023,01:09:41,0.001,0.0,0.0,0.0
30/08/2023,01:10:41,0.000,0.0,0.0,0.0
30/08/2023,01:11:41,0.001,0.0,0.0,0.0
30/08/2023,01:12:41,0.002,0.0,0.0,0.0
30/08/2023,01:13:41,0.001,0.0,0.0,0.0
30/08/2023,01:14:41,0.001,0.0,0.0,0.0
30/08/2023,01:15:41,0.001,0.0,0.0,0.0
30/08/2023,01:16:41,-0.000,0.0,0.0,0.0
30/08/2023,01:17:40,0.001,0.0,0.0,0.0
30/08/2023,01:18:40,0.001,0.0,0.0,0.0
30/08/2023,01:19:41,0.001,0.0,0.0,0.0
30/08/2023,01:20:41,0.001,0.0,0.0,0.0
30/08/2023,01:21:39,0.001,0.0,0.0,0.0
30/08/2023,01:22:39,0.000,0.0,0.0,0.0
30/08/2023,01:23:41,0.000,0.0,0.0,0.0
30/08/2023,01:24:39,-0.000,0.0,0.0,0.0
30/08/2023,01:25:39,0.000,0.0,0.0,0.0
30/08/2023,01:26:41,0.002,0.0,0.0,0.0
30/08/2023,01:27:41,0.001,0.0,0.0,0.0
30/08/2023,01:28:41,0.001,0.0,0.0,0.0
30/08/2023,01:29:41,0.000,0.0,0.0,0.0
30/08/2023,01:30:41,0.000,0.0,0.0,0.0
30/08/2023,01:31:41,-0.000,0.0,0.0,0.0
30/08/2023,01:32:40,0.001,0.0,0.0,0.0
30/08/2023,01:33:40,0.001,0.0,0.0,0.0
30/08/2023,01:34:41,0.000,0.0,0.0,0.0
30/08/2023,01:35:41,0.000,0.0,0.0,0.0
30/08/2023,01:36:41,0.002,0.0,0.0,0.0
30/08/2023,01:37:41,-0.000,0.0,0.0,0.0
30/08/2023,01:38:41,0.001,0.0,0.0,0.0
30/08/2023,01:39:41,0.001,0.0,0.0,0.0
30/08/2023,01:40:41,0.001,0.0,0.0,0.0
30/08/2023,01:41:40,0.002,0.0,0.0,0.0
30/08/2023,01:42:41,0.002,0.0,0.0,0.0
30/08/2023,01:43:41,0.001,0.0,0.0,0.0
30/08/2023,01:44:41,0.001,0.0,0.0,0.0
30/08/2023,01:45:39,0.002,0.0,0.0,0.0
30/08/2023,01:46:38,0.001,0.0,0.0,0.0
30/08/2023,01:47:41,0.001,0.0,0.0,0.0
30/08/2023,01:48:41,0.001,0.0,0.0,0.0
30/08/2023,01:49:41,0.002,0.0,0.0,0.0
30/08/2023,01:50:41,0.001,0.0,0.0,0.0
30/08/2023,01:51:41,0.002,0.0,0.0,0.0
30/08/2023,01:52:40,0.001,0.0,0.0,0.0
30/08/2023,01:53:41,0.001,0.0,0.0,0.0
30/08/2023,01:54:41,0.001,0.0,0.0,0.0
30/08/2023,01:55:39,0.002,0.0,0.0,0.0
30/08/2023,01:56:39,0.000,0.0,0.0,0.0
30/08/2023,01:57:41,0.001,0.0,0.0,0.0
30/08/2023,01:58:39,0.001,0.0,0.0,0.0
30/08/2023,01:59:39,0.000,0.0,0.0,0.0
30/08/2023,02:00:41,0.001,0.0,0.0,0.0
30/08/2023,02:01:41,0.000,0.0,0.0,0.0
30/08/2023,02:02:41,0.001,0.0,0.0,0.0
30/08/2023,02:03:41,0.001,0.0,0.0,0.0
30/08/2023,02:04:41,0.001,0.0,0.0,0.0
30/08/2023,02:05:41,0.000,0.0,0.0,0.0
30/08/2023,02:06:39,0.002,0.0,0.0,0.0
30/08/2023,02:07:39,0.000,0.0,0.0,0.0
30/08/2023,02:08:41,0.001,0.0,0.0,0.0
30/08/2023,02:09:41,0.001,0.0,0.0,0.0
30/08/2023,02:10:39,0.001,0.0,0.0,0.0
30/08/2023,02:11:39,0.000,0.0,0.0,0.0
30/08/2023,02:12:41,-0.000,0.0,0.0,0.0
30/08/2023,02:13:41,0.001,0.0,0.0,0.0
30/08/2023,02:14:41,0.001,0.0,0.0,0.0
30/08/2023,02:15:41,0.000,0.0,0.0,0.0
30/08/2023,02:16:39,0.001,0.0,0.0,0.0
30/08/2023,02:17:39,0.001,0.0,0.0,0.0
30/08/2023,02:18:41,0.000,0.0,0.0,0.0
30/08/2023,02:19:41,0.001,0.0,0.0,0.0
30/08/2023,02:20:41,0.000,0.0,0.0,0.0
30/08/2023,02:21:41,-0.000,0.0,0.0,0.0
30/08/2023,02:22:41,0.001,0.0,0.0,0.0
30/08/2023,02:23:41,0.000,0.0,0.0,0.0
30/08/2023,02:24:39,0.001,0.0,0.0,0.0
30/08/2023,02:25:39,0.002,0.0,0.0,0.0
30/08/2023,02:26:41,0.001,0.0,0.0,0.0
30/08/2023,02:27:42,0.001,0.0,0.0,0.0
30/08/2023,02:28:41,0.001,0.0,0.0,0.0
30/08/2023,02:29:41,0.001,0.0,0.0,0.0
30/08/2023,02:30:41,0.001,0.0,0.0,0.0
30/08/2023,02:31:42,0.000,0.0,0.0,0.0
30/08/2023,02:32:41,0.002,0.0,0.0,0.0
30/08/2023,02:33:41,0.002,0.0,0.0,0.0
30/08/2023,02:34:41,0.002,0.0,0.0,0.0
30/08/2023,02:35:41,0.001,0.0,0.0,0.0
30/08/2023,02:36:41,0.002,0.0,0.0,0.0
30/08/2023,02:37:41,0.001,0.0,0.0,0.0
30/08/2023,02:38:41,0.000,0.0,0.0,0.0
30/08/2023,02:39:41,0.001,0.0,0.0,0.0
30/08/2023,02:40:41,0.001,0.0,0.0,0.0
30/08/2023,02:41:41,0.001,0.0,0.0,0.0
30/08/2023,02:42:41,0.001,0.0,0.0,0.0
30/08/2023,02:43:41,0.002,0.0,0.0,0.0
30/08/2023,02:44:41,0.000,0.0,0.0,0.0
30/08/2023,02:45:41,0.001,0.0,0.0,0.0
30/08/2023,02:46:41,0.001,0.0,0.0,0.0
30/08/2023,02:47:41,0.001,0.0,0.0,0.0
30/08/2023,02:48:41,0.002,0.0,0.0,0.0
30/08/2023,02:49:41,0.000,0.0,0.0,0.0
30/08/2023,02:50:41,0.000,0.0,0.0,0.0
30/08/2023,02:51:41,0.002,0.0,0.0,0.0
30/08/2023,02:52:41,0.001,0.0,0.0,0.0
30/08/2023,02:53:41,0.001,0.0,0.0,0.0
30/08/2023,02:54:41,0.001,0.0,0.0,0.0
30/08/2023,02:55:41,0.000,0.0,0.0,0.0
30/08/2023,02:56:41,0.001,0.0,0.0,0.0
30/08/2023,02:57:41,0.002,0.0,0.0,0.0
30/08/2023,02:58:41,0.001,0.0,0.0,0.0
30/08/2023,02:59:41,0.002,0.0,0.0,0.0
30/08/2023,03:00:41,0.001,0.0,0.0,0.0
30/08/2023,03:01:41,0.002,0.0,0.0,0.0
30/08/2023,03:02:39,0.002,0.0,0.0,0.0
30/08/2023,03:03:39,0.002,0.0,0.0,0.0
30/08/2023,03:04:41,0.001,0.0,0.0,0.0
30/08/2023,03:05:41,0.002,0.0,0.0,0.0
30/08/2023,03:06:41,0.002,0.0,0.0,0.0
30/08/2023,03:07:41,0.002,0.0,0.0,0.0
30/08/2023,03:08:41,0.001,0.0,0.0,0.0
30/08/2023,03:09:41,0.001,0.0,0.0,0.0
30/08/2023,03:10:41,0.002,0.0,0.0,0.0
30/08/2023,03:11:39,0.001,0.0,0.0,0.0
30/08/2023,03:12:39,0.001,0.0,0.0,0.0
30/08/2023,03:13:41,0.001,0.0,0.0,0.0
30/08/2023,03:14:41,0.001,0.0,0.0,0.0
30/08/2023,03:15:41,0.001,0.0,0.0,0.0
30/08/2023,03:16:41,0.001,0.0,0.0,0.0
30/08/2023,03:17:40,0.002,0.0,0.0,0.0
30/08/2023,03:18:39,0.001,0.0,0.0,0.0
30/08/2023,03:19:41,0.002,0.0,0.0,0.0
30/08/2023,03:20:41,0.002,0.0,0.0,0.0
30/08/2023,03:21:41,0.001,0.0,0.0,0.0
30/08/2023,03:22:42,0.001,0.0,0.0,0.0
30/08/2023,03:23:41,0.001,0.0,0.0,0.0
30/08/2023,03:24:41,0.000,0.0,0.0,0.0
30/08/2023,03:25:41,0.001,0.0,0.0,0.0
30/08/2023,03:26:41,0.002,0.0,0.0,0.0
30/08/2023,03:27:41,0.001,0.0,0.0,0.0
30/08/2023,03:28:41,0.001,0.0,0.0,0.0
30/08/2023,03:29:41,0.001,0.0,0.0,0.0
30/08/2023,03:30:41,0.002,0.0,0.0,0.0
30/08/2023,03:31:41,0.001,0.0,0.0,0.0
30/08/2023,03:32:41,0.002,0.0,0.0,0.0
30/08/2023,03:33:42,0.001,0.0,0.0,0.0
30/08/2023,03:34:41,0.002,0.0,0.0,0.0
30/08/2023,03:35:41,0.001,0.0,0.0,0.0
30/08/2023,03:36:41,0.001,0.0,0.0,0.0
30/08/2023,03:37:41,0.001,0.0,0.0,0.0
30/08/2023,03:38:41,0.002,0.0,0.0,0.0
30/08/2023,03:39:41,0.002,0.0,0.0,0.0
30/08/2023,03:40:41,0.001,0.0,0.0,0.0
30/08/2023,03:41:41,0.001,0.0,0.0,0.0
30/08/2023,03:42:41,0.001,0.0,0.0,0.0
30/08/2023,03:43:41,0.002,0.0,0.0,0.0
30/08/2023,03:44:41,0.002,0.0,0.0,0.0
30/08/2023,03:45:41,0.001,0.0,0.0,0.0
30/08/2023,03:46:41,0.002,0.0,0.0,0.0
30/08/2023,03:47:42,0.001,0.0,0.0,0.0
30/08/2023,03:48:41,0.001,0.0,0.0,0.0
30/08/2023,03:49:41,0.001,0.0,0.0,0.0
30/08/2023,03:50:41,0.001,0.0,0.0,0.0
30/08/2023,03:51:42,0.001,0.0,0.0,0.0
30/08/2023,03:52:41,0.001,0.0,0.0,0.0
30/08/2023,03:53:41,0.001,0.0,0.0,0.0
30/08/2023,03:54:41,0.002,0.0,0.0,0.0
30/08/2023,03:55:41,0.002,0.0,0.0,0.0
30/08/2023,03:56:41,0.001,0.0,0.0,0.0
30/08/2023,03:57:41,0.001,0.0,0.0,0.0
30/08/2023,03:58:42,0.001,0.0,0.0,0.0
30/08/2023,03:59:41,0.001,0.0,0.0,0.0
30/08/2023,04:00:41,0.000,0.0,0.0,0.0
30/08/2023,04:01:41,0.001,0.0,0.0,0.0
30/08/2023,04:02:41,0.001,0.0,0.0,0.0
30/08/2023,04:03:41,0.001,0.0,0.0,0.0
30/08/2023,04:04:41,0.002,0.0,0.0,0.0
30/08/2023,04:05:41,0.002,0.0,0.0,0.0
30/08/2023,04:06:41,0.001,0.0,0.0,0.0
30/08/2023,04:07:41,0.001,0.0,0.0,0.0
30/08/2023,04:08:41,0.002,0.0,0.0,0.0
30/08/2023,04:09:42,0.002,0.0,0.0,0.0
30/08/2023,04:10:41,0.001,0.0,0.0,0.0
30/08/2023,04:11:41,0.001,0.0,0.0,0.0
30/08/2023,04:12:41,0.002,0.0,0.0,0.0
30/08/2023,04:13:41,0.002,0.0,0.0,0.0
30/08/2023,04:14:41,0.002,0.0,0.0,0.0
30/08/2023,04:15:41,0.001,0.0,0.0,0.0
30/08/2023,04:16:41,0.000,0.0,0.0,0.0
30/08/2023,04:17:41,0.002,0.0,0.0,0.0
30/08/2023,04:18:41,0.002,0.0,0.0,0.0
30/08/2023,04:19:41,0.003,0.0,0.0,0.0
30/08/2023,04:20:41,0.002,0.0,0.0,0.0
30/08/2023,04:21:41,0.001,0.0,0.0,0.0
30/08/2023,04:22:41,0.002,0.0,0.0,0.0
30/08/2023,04:23:41,0.003,0.0,0.0,0.0
30/08/2023,04:24:41,0.001,0.0,0.0,0.0
30/08/2023,04:25:41,0.001,0.0,0.0,0.0
30/08/2023,04:26:41,0.000,0.0,0.0,0.0
30/08/2023,04:27:41,0.002,0.0,0.0,0.0
30/08/2023,04:28:41,0.001,0.0,0.0,0.0
30/08/2023,04:29:42,0.002,0.0,0.0,0.0
30/08/2023,04:30:41,0.001,0.0,0.0,0.0
30/08/2023,04:31:41,0.001,0.0,0.0,0.0
30/08/2023,04:32:41,0.001,0.0,0.0,0.0
30/08/2023,04:33:41,0.002,0.0,0.0,0.0
30/08/2023,04:34:41,0.001,0.0,0.0,0.0
30/08/2023,04:35:41,0.002,0.0,0.0,0.0
30/08/2023,04:36:41,0.001,0.0,0.0,0.0
30/08/2023,04:37:41,0.002,0.0,0.0,0.0
30/08/2023,04:38:39,0.001,0.0,0.0,0.0
30/08/2023,04:39:39,0.001,0.0,0.0,0.0
30/08/2023,04:40:41,0.001,0.0,0.0,0.0
30/08/2023,04:41:41,0.002,0.0,0.0,0.0
30/08/2023,04:42:41,0.001,0.0,0.0,0.0
30/08/2023,04:43:41,0.001,0.0,0.0,0.0
30/08/2023,04:44:41,0.001,0.0,0.0,0.0
30/08/2023,04:45:41,0.002,0.0,0.0,0.0
30/08/2023,04:46:42,0.002,0.0,0.0,0.0
30/08/2023,04:47:42,0.002,0.0,0.0,0.0
30/08/2023,04:48:42,0.001,0.0,0.0,0.0
30/08/2023,04:49:41,0.001,0.0,0.0,0.0
30/08/2023,04:50:42,0.001,0.0,0.0,0.0
30/08/2023,04:51:41,0.001,0.0,0.0,0.0
30/08/2023,04:52:41,0.001,0.0,0.0,0.0
30/08/2023,04:53:41,0.002,0.0,0.0,0.0
30/08/2023,04:54:41,0.002,0.0,0.0,0.0
30/08/2023,04:55:41,0.002,0.0,0.0,0.0
30/08/2023,04:56:41,0.001,0.0,0.0,0.0
30/08/2023,04:57:41,0.002,0.0,0.0,0.0
30/08/2023,04:58:41,0.002,0.0,0.0,0.0
30/08/2023,04:59:42,0.002,0.0,0.0,0.0
30/08/2023,05:00:41,0.001,0.0,0.0,0.0
30/08/2023,05:01:42,0.002,0.0,0.0,0.0
30/08/2023,05:02:41,0.002,0.0,0.0,0.0
30/08/2023,05:03:41,0.002,0.0,0.0,0.0
30/08/2023,05:04:41,0.002,0.0,0.0,0.0
30/08/2023,05:05:41,0.002,0.0,0.0,0.0
30/08/2023,05:06:41,0.003,0.0,0.0,0.0
30/08/2023,05:07:41,0.003,0.0,0.0,0.0
30/08/2023,05:08:42,0.003,0.0,0.0,0.0
30/08/2023,05:09:41,0.002,0.0,0.0,0.0
30/08/2023,05:10:41,0.004,0.0,0.0,0.0
30/08/2023,05:11:42,0.003,0.0,0.0,0.0
30/08/2023,05:12:41,0.003,0.0,0.0,0.0
30/08/2023,05:13:41,0.003,0.0,0.0,0.0
30/08/2023,05:14:41,0.004,0.0,0.0,0.0
30/08/2023,05:15:41,0.004,0.0,0.0,0.0
30/08/2023,05:16:41,0.004,0.0,0.0,0.0
30/08/2023,05:17:42,0.004,0.0,0.0,0.0
30/08/2023,05:18:41,0.003,0.0,0.0,0.0
30/08/2023,05:19:41,0.005,0.0,0.0,0.0
30/08/2023,05:20:41,0.006,0.0,0.0,0.0
30/08/2023,05:21:41,0.005,0.0,0.0,0.0
30/08/2023,05:22:41,0.006,0.0,0.0,0.0
30/08/2023,05:23:42,0.006,0.0,0.0,0.0
30/08/2023,05:24:41,0.006,0.0,0.0,0.0
30/08/2023,05:25:41,0.006,0.0,0.0,0.0
30/08/2023,05:26:41,0.006,0.0,0.0,0.0
30/08/2023,05:27:42,0.006,0.0,0.0,0.0
30/08/2023,05:28:41,0.007,0.0,0.0,0.0
30/08/2023,05:29:41,0.008,0.0,0.001,0.001
30/08/2023,05:30:42,0.007,0.0,0.001,0.0
30/08/2023,05:31:41,0.008,0.0,0.001,0.0
30/08/2023,05:32:41,0.008,0.0,0.001,0.0
30/08/2023,05:33:41,0.009,0.0,0.001,0.0
30/08/2023,05:34:41,0.010,0.0,0.001,0.0
30/08/2023,05:35:41,0.010,0.0,0.001,0.0
30/08/2023,05:36:41,0.010,0.0,0.001,0.0
30/08/2023,05:37:41,0.010,0.0,0.002,0.001
30/08/2023,05:38:41,0.010,0.0,0.002,0.0
30/08/2023,05:39:41,0.010,0.0,0.002,0.0
30/08/2023,05:40:42,0.011,0.0,0.002,0.0
30/08/2023,05:41:41,0.012,0.0,0.002,0.0
30/08/2023,05:42:42,0.011,0.0,0.003,0.001
30/08/2023,05:43:41,0.011,0.0,0.003,0.0
30/08/2023,05:44:41,0.011,0.0,0.003,0.0
30/08/2023,05:45:41,0.012,0.0,0.003,0.0
30/08/2023,05:46:42,0.013,0.0,0.003,0.0
30/08/2023,05:47:41,0.012,0.0,0.003,0.0
30/08/2023,05:48:41,0.013,0.0,0.004,0.001
30/08/2023,05:49:41,0.013,0.0,0.004,0.0
30/08/2023,05:50:41,0.013,0.0,0.004,0.0
30/08/2023,05:51:41,0.014,0.0,0.004,0.0
30/08/2023,05:52:41,0.014,0.0,0.005,0.001
30/08/2023,05:53:42,0.014,0.0,0.005,0.0
30/08/2023,05:54:41,0.016,0.0,0.005,0.0
30/08/2023,05:55:41,0.016,0.0,0.005,0.0
30/08/2023,05:56:41,0.017,0.0,0.006,0.001
30/08/2023,05:57:41,0.016,0.0,0.006,0.0
30/08/2023,05:58:41,0.017,0.0,0.006,0.0
30/08/2023,05:59:43,0.019,0.0,0.006,0.0
30/08/2023,06:00:41,0.018,0.0,0.007,0.001
30/08/2023,06:01:41,0.019,0.0,0.007,0.0
30/08/2023,06:02:42,0.020,0.0,0.007,0.0
30/08/2023,06:03:41,0.021,0.0,0.008,0.001
30/08/2023,06:04:41,0.021,0.0,0.008,0.0
30/08/2023,06:05:42,0.024,0.0,0.008,0.0
30/08/2023,06:06:41,0.024,0.0,0.009,0.001
30/08/2023,06:07:41,0.025,0.0,0.009,0.0
30/08/2023,06:08:42,0.027,0.0,0.01,0.001
30/08/2023,06:09:41,0.026,0.0,0.01,0.0
30/08/2023,06:10:41,0.027,0.0,0.01,0.0
30/08/2023,06:11:42,0.028,0.0,0.011,0.001
30/08/2023,06:12:41,0.029,0.0,0.011,0.0
30/08/2023,06:13:41,0.030,0.0,0.012,0.001
30/08/2023,06:14:42,0.031,0.0,0.012,0.0
30/08/2023,06:15:41,0.032,0.0,0.013,0.001
30/08/2023,06:16:41,0.033,0.0,0.013,0.0
30/08/2023,06:17:42,0.034,0.0,0.014,0.001
30/08/2023,06:18:41,0.035,0.0,0.015,0.001
30/08/2023,06:19:42,0.035,0.0,0.015,0.0
30/08/2023,06:20:41,0.036,0.0,0.016,0.001
30/08/2023,06:21:41,0.036,0.0,0.016,0.0
30/08/2023,06:22:42,0.037,0.0,0.017,0.001
30/08/2023,06:23:41,0.036,0.0,0.018,0.001
30/08/2023,06:24:42,0.036,0.0,0.018,0.0
30/08/2023,06:25:41,0.037,0.0,0.019,0.001
30/08/2023,06:26:41,0.037,0.0,0.019,0.0
30/08/2023,06:27:40,0.039,0.0,0.02,0.001
30/08/2023,06:28:39,0.040,0.0,0.021,0.001
30/08/2023,06:29:41,0.041,0.0,0.021,0.0
30/08/2023,06:30:41,0.043,0.0,0.022,0.001
30/08/2023,06:31:42,0.043,0.0,0.023,0.001
30/08/2023,06:32:41,0.046,0.0,0.023,0.0
30/08/2023,06:33:41,0.047,0.0,0.024,0.001
30/08/2023,06:34:41,0.049,0.0,0.025,0.001
30/08/2023,06:35:41,0.051,0.0,0.026,0.001
30/08/2023,06:36:42,0.052,0.0,0.027,0.001
30/08/2023,06:37:41,0.054,0.0,0.028,0.001
30/08/2023,06:38:41,0.058,0.0,0.029,0.001
30/08/2023,06:39:40,0.059,0.0,0.03,0.001
30/08/2023,06:40:39,0.062,0.0,0.031,0.001
30/08/2023,06:41:41,0.064,0.0,0.032,0.001
30/08/2023,06:42:41,0.066,0.0,0.033,0.001
30/08/2023,06:43:42,0.069,0.0,0.034,0.001
30/08/2023,06:44:41,0.069,0.0,0.035,0.001
30/08/2023,06:45:41,0.071,0.0,0.036,0.001
30/08/2023,06:46:40,0.074,0.0,0.037,0.001
30/08/2023,06:47:39,0.076,0.0,0.039,0.002
30/08/2023,06:48:41,0.078,0.0,0.04,0.001
30/08/2023,06:49:42,0.080,0.0,0.041,0.001
30/08/2023,06:50:42,0.081,0.0,0.043,0.002
30/08/2023,06:51:41,0.083,0.0,0.044,0.001
30/08/2023,06:52:41,0.084,0.0,0.045,0.001
30/08/2023,06:53:42,0.085,0.0,0.047,0.002
30/08/2023,06:54:41,0.087,0.0,0.048,0.001
30/08/2023,06:55:41,0.087,0.0,0.05,0.002
30/08/2023,06:56:41,0.089,0.0,0.051,0.001
30/08/2023,06:57:42,0.089,0.0,0.053,0.002
30/08/2023,06:58:41,0.092,0.0,0.054,0.001
30/08/2023,06:59:42,0.094,0.0,0.056,0.002
30/08/2023,07:00:42,0.094,0.0,0.057,0.001
30/08/2023,07:01:41,0.095,0.0,0.059,0.002
30/08/2023,07:02:41,0.096,0.0,0.06,0.001
30/08/2023,07:03:40,0.097,0.0,0.062,0.002
30/08/2023,07:04:40,0.098,0.0,0.064,0.002
30/08/2023,07:05:42,0.096,0.0,0.065,0.001
30/08/2023,07:06:41,0.095,0.0,0.067,0.002
30/08/2023,07:07:41,0.094,0.0,0.068,0.001
30/08/2023,07:08:42,0.093,0.0,0.07,0.002
30/08/2023,07:09:41,0.090,0.0,0.071,0.001
30/08/2023,07:10:41,0.088,0.0,0.073,0.002
30/08/2023,07:11:40,0.087,0.0,0.074,0.001
30/08/2023,07:12:39,0.085,0.0,0.076,0.002
30/08/2023,07:13:42,0.086,0.0,0.077,0.001
30/08/2023,07:14:41,0.087,0.0,0.079,0.002
30/08/2023,07:15:41,0.087,0.0,0.08,0.001
30/08/2023,07:16:42,0.089,0.0,0.082,0.002
30/08/2023,07:17:41,0.092,0.0,0.083,0.001
30/08/2023,07:18:41,0.094,0.0,0.085,0.002
30/08/2023,07:19:41,0.097,0.0,0.086,0.001
30/08/2023,07:20:40,0.100,0.0,0.088,0.002
30/08/2023,07:21:39,0.102,0.0,0.09,0.002
30/08/2023,07:22:41,0.106,0.0,0.091,0.001
30/08/2023,07:23:41,0.108,0.0,0.093,0.002
30/08/2023,07:24:41,0.110,0.0,0.095,0.002
30/08/2023,07:25:42,0.111,0.0,0.097,0.002
30/08/2023,07:26:41,0.112,0.0,0.099,0.002
30/08/2023,07:27:41,0.113,0.0,0.101,0.002
30/08/2023,07:28:42,0.114,0.0,0.102,0.001
30/08/2023,07:29:41,0.116,0.0,0.104,0.002
30/08/2023,07:30:42,0.118,0.0,0.106,0.002
30/08/2023,07:31:41,0.125,0.0,0.108,0.002
30/08/2023,07:32:41,0.128,0.0,0.11,0.002
30/08/2023,07:33:42,0.133,0.0,0.113,0.003
30/08/2023,07:34:41,0.138,0.0,0.115,0.002
30/08/2023,07:35:42,0.142,0.0,0.117,0.002
30/08/2023,07:36:41,0.144,0.0,0.12,0.003
30/08/2023,07:37:41,0.148,0.0,0.122,0.002
30/08/2023,07:38:41,0.152,0.0,0.125,0.003
30/08/2023,07:39:42,0.155,0.0,0.127,0.002
30/08/2023,07:40:41,0.159,0.0,0.13,0.003
30/08/2023,07:41:41,0.161,0.0,0.132,0.002
30/08/2023,07:42:41,0.167,0.0,0.135,0.003
30/08/2023,07:43:40,0.169,0.0,0.138,0.003
30/08/2023,07:44:40,0.175,0.0,0.141,0.003
30/08/2023,07:45:42,0.182,0.0,0.144,0.003
30/08/2023,07:46:41,0.187,0.0,0.147,0.003
30/08/2023,07:47:42,0.193,0.0,0.15,0.003
30/08/2023,07:48:42,0.199,0.0,0.153,0.003
30/08/2023,07:49:41,0.206,0.0,0.156,0.003
30/08/2023,07:50:41,0.212,0.0,0.16,0.004
30/08/2023,07:51:42,0.216,0.0,0.164,0.004
30/08/2023,07:52:41,0.222,1.0,0.167,0.003
30/08/2023,07:53:40,0.228,1.0,0.171,0.004
30/08/2023,07:54:40,0.234,1.0,0.175,0.004
30/08/2023,07:55:42,0.243,1.0,0.179,0.004
30/08/2023,07:56:41,0.246,1.0,0.183,0.004
30/08/2023,07:57:41,0.248,1.0,0.187,0.004
30/08/2023,07:58:42,0.248,1.0,0.191,0.004
30/08/2023,07:59:41,0.252,1.0,0.195,0.004
30/08/2023,08:00:40,0.256,1.0,0.2,0.005
30/08/2023,08:01:40,0.263,1.0,0.204,0.004
30/08/2023,08:02:41,0.270,1.0,0.208,0.004
30/08/2023,08:03:42,0.280,1.0,0.213,0.005
30/08/2023,08:04:41,0.289,1.0,0.218,0.005
30/08/2023,08:05:41,0.301,1.0,0.223,0.005
30/08/2023,08:06:42,0.311,1.0,0.228,0.005
30/08/2023,08:07:41,0.328,1.0,0.233,0.005
30/08/2023,08:08:41,0.319,1.0,0.238,0.005
30/08/2023,08:09:41,0.329,1.0,0.244,0.006
30/08/2023,08:10:42,0.384,1.0,0.25,0.006
30/08/2023,08:11:41,0.384,1.0,0.256,0.006
30/08/2023,08:12:41,0.417,1.0,0.263,0.007
30/08/2023,08:13:42,0.399,1.0,0.269,0.006
30/08/2023,08:14:41,0.429,1.0,0.276,0.007
30/08/2023,08:15:42,0.457,1.0,0.283,0.007
30/08/2023,08:16:41,0.461,1.0,0.291,0.008
30/08/2023,08:17:41,0.457,1.0,0.299,0.008
30/08/2023,08:18:42,0.472,1.0,0.307,0.008
30/08/2023,08:19:42,0.472,1.0,0.314,0.007
30/08/2023,08:20:42,0.460,1.0,0.322,0.008
30/08/2023,08:21:42,0.476,1.0,0.33,0.008
30/08/2023,08:22:41,0.470,1.0,0.338,0.008
30/08/2023,08:23:42,0.473,1.0,0.346,0.008
30/08/2023,08:25:10,0.495,1.0,0.358,0.012
30/08/2023,08:26:42,0.489,1.0,0.37,0.012
30/08/2023,08:27:41,0.507,1.0,0.379,0.009
30/08/2023,08:28:40,0.515,1.0,0.387,0.008
30/08/2023,08:29:40,0.522,1.0,0.396,0.009
30/08/2023,08:30:42,0.529,1.0,0.405,0.009
30/08/2023,08:31:41,0.537,1.0,0.414,0.009
30/08/2023,08:32:42,0.546,1.0,0.423,0.009
30/08/2023,08:33:42,0.553,1.0,0.432,0.009
30/08/2023,08:34:41,0.560,1.0,0.441,0.009
30/08/2023,08:35:42,0.567,1.0,0.45,0.009
30/08/2023,08:36:41,0.572,1.0,0.46,0.01
30/08/2023,08:37:41,0.578,1.0,0.47,0.01
30/08/2023,08:38:42,0.584,1.0,0.479,0.009
30/08/2023,08:39:41,0.591,1.0,0.489,0.01
30/08/2023,08:40:42,0.596,1.0,0.499,0.01
30/08/2023,08:41:41,0.604,1.0,0.509,0.01
30/08/2023,08:42:42,0.612,1.0,0.519,0.01
30/08/2023,08:43:41,0.626,1.0,0.529,0.01
30/08/2023,08:44:41,0.639,1.0,0.54,0.011
30/08/2023,08:45:42,0.650,1.0,0.551,0.011
30/08/2023,08:46:42,0.657,2.0,0.562,0.011
30/08/2023,08:47:41,0.658,2.0,0.573,0.011
30/08/2023,08:48:41,0.667,2.0,0.584,0.011
30/08/2023,08:49:42,0.674,2.0,0.595,0.011
30/08/2023,08:50:41,0.689,2.0,0.606,0.011
30/08/2023,08:51:41,0.699,2.0,0.617,0.011
30/08/2023,08:52:42,0.614,1.0,0.628,0.011
30/08/2023,08:53:41,0.683,2.0,0.64,0.012
30/08/2023,08:54:41,0.711,2.0,0.652,0.012
30/08/2023,08:55:42,0.549,1.0,0.663,0.011
30/08/2023,08:56:41,0.676,2.0,0.674,0.011
30/08/2023,08:57:41,0.485,1.0,0.683,0.009
30/08/2023,08:58:40,0.542,1.0,0.691,0.008
30/08/2023,08:59:39,0.681,2.0,0.702,0.011
30/08/2023,09:00:42,0.471,1.0,0.713,0.011
30/08/2023,09:01:42,0.669,2.0,0.722,0.009
30/08/2023,09:02:42,0.657,2.0,0.733,0.011
30/08/2023,09:03:42,0.478,1.0,0.741,0.008
30/08/2023,09:04:41,0.701,2.0,0.75,0.009
30/08/2023,09:05:42,0.648,1.0,0.762,0.012
30/08/2023,09:06:42,0.572,1.0,0.772,0.01
30/08/2023,09:07:41,0.481,1.0,0.782,0.01
30/08/2023,09:08:40,0.441,1.0,0.789,0.007
30/08/2023,09:09:40,0.433,1.0,0.797,0.008
30/08/2023,09:10:41,0.477,1.0,0.804,0.007
30/08/2023,09:11:42,0.459,1.0,0.812,0.008
30/08/2023,09:12:41,0.465,1.0,0.82,0.008
30/08/2023,09:13:41,0.440,1.0,0.827,0.007
30/08/2023,09:14:42,0.513,1.0,0.835,0.008
30/08/2023,09:15:42,0.453,1.0,0.845,0.01
30/08/2023,09:16:43,0.494,1.0,0.853,0.008
30/08/2023,09:17:42,0.503,1.0,0.861,0.008
30/08/2023,09:18:41,0.738,2.0,0.871,0.01
30/08/2023,09:19:40,0.528,1.0,0.882,0.011
30/08/2023,09:20:39,0.553,1.0,0.891,0.009
30/08/2023,09:21:41,0.848,2.0,0.903,0.012
30/08/2023,09:22:42,0.884,2.0,0.918,0.015
30/08/2023,09:23:41,0.808,2.0,0.93,0.012
30/08/2023,09:24:42,0.913,2.0,0.945,0.015
30/08/2023,09:25:41,0.928,2.0,0.96,0.015
30/08/2023,09:26:40,0.870,2.0,0.975,0.015
30/08/2023,09:27:40,0.740,2.0,0.988,0.013
30/08/2023,09:28:42,0.948,2.0,1.004,0.016
30/08/2023,09:29:41,0.960,2.0,1.02,0.016
30/08/2023,09:30:41,0.970,2.0,1.036,0.016
30/08/2023,09:31:42,0.962,2.0,1.052,0.016
30/08/2023,09:32:42,0.985,2.0,1.068,0.016
30/08/2023,09:33:42,0.974,2.0,1.085,0.017
30/08/2023,09:34:42,0.979,2.0,1.1,0.015
30/08/2023,09:35:41,0.971,2.0,1.116,0.016
30/08/2023,09:36:42,1.007,2.0,1.132,0.016
30/08/2023,09:37:42,1.020,2.0,1.149,0.017
30/08/2023,09:38:42,1.022,2.0,1.166,0.017
30/08/2023,09:39:42,1.036,2.0,1.183,0.017
30/08/2023,09:40:42,1.053,2.0,1.2,0.017
30/08/2023,09:41:41,1.067,2.0,1.218,0.018
30/08/2023,09:42:42,1.062,2.0,1.236,0.018
30/08/2023,09:43:41,1.038,2.0,1.253,0.017
30/08/2023,09:44:41,0.994,2.0,1.27,0.017
30/08/2023,09:45:42,0.926,2.0,1.286,0.016
30/08/2023,09:46:42,0.725,2.0,1.3,0.014
30/08/2023,09:47:41,0.512,1.0,1.311,0.011
30/08/2023,09:48:42,0.463,1.0,1.318,0.007
30/08/2023,09:49:42,0.492,1.0,1.326,0.008
30/08/2023,09:50:42,0.543,1.0,1.335,0.009
30/08/2023,09:51:41,0.591,1.0,1.344,0.009
30/08/2023,09:52:42,0.644,1.0,1.355,0.011
30/08/2023,09:53:42,0.666,2.0,1.366,0.011
30/08/2023,09:54:41,1.090,3.0,1.379,0.013
30/08/2023,09:55:42,1.119,3.0,1.397,0.018
30/08/2023,09:56:42,1.142,3.0,1.416,0.019
30/08/2023,09:57:42,1.141,3.0,1.434,0.018
30/08/2023,09:58:41,1.147,3.0,1.453,0.019
30/08/2023,09:59:42,1.161,3.0,1.473,0.02
30/08/2023,10:00:42,1.171,3.0,1.492,0.019
30/08/2023,10:01:42,1.178,3.0,1.512,0.02
30/08/2023,10:02:42,1.190,3.0,1.531,0.019
30/08/2023,10:03:41,1.200,3.0,1.551,0.02